Regional Weather Roundup
Issued by NWS

Home | Current Version | Previous Version | Graphics & Text | Print | Product List | Glossary On
Versions: 1 2 3 4 5 6 7 8 9 10 11 12 13 14 15 16 17 18 19 20 21 22 23 24 25 26 27 28 29 30 31 32 33 34 35 36 37 38 39 40 41 42 43 44 45 46 47 48 49 50
000
ASUS45 KPSR 021310
RWRAZ

ARIZONA REGIONAL HOURLY WEATHER ROUNDUP
NATIONAL WEATHER SERVICE PHOENIX AZ
600 AM MST MON MAR 02 2015

NOTE: FAIR INDICATES FEW OR NO CLOUDS BELOW 12,000 FEET WITH NO
SIGNIFICANT WEATHER AND/OR OBSTRUCTIONS TO VISIBILITY.

AZZ001>003-036-021400-
NORTHWEST ARIZONA

CITY           SKY/WX    TMP DP  RH WIND       PRES   REMARKS
BULLHEAD CITY  LGT RAIN  48  48 100 SW6       29.88R
KINGMAN        LGT RAIN  40  36  86 S12       29.85S WCI  33
$$

AZZ004>008-015-016-018-021400-
NORTH CENTRAL ARIZONA

CITY           SKY/WX    TMP DP  RH WIND       PRES   REMARKS
GRAND CANYON   FLURRIES  37  34  89 S10G20    29.83F WCI  30
PRESCOTT       LGT RAIN  45  39  79 S13       29.84F
FLAGSTAFF      LGT RAIN  38  35  89 S22G39    29.88F WCI  27
PAYSON         CLOUDY    46  45  93 S13G24    29.94S
PAGE           CLOUDY    38  35  89 NE3       29.82F
$$

AZZ009>014-017-021400-
NORTHEAST ARIZONA

CITY           SKY/WX    TMP DP  RH WIND       PRES   REMARKS
WINSLOW        MOCLDY    44  40  85 S7        29.89F
SAINT JOHNS    CLEAR     28  24  85 W5        29.94F WCI  23
WINDOW ROCK    CLEAR     34  31  88 CALM      29.98F
SHOW LOW       PTCLDY    41  36  81 S16       29.98F
$$

AZZ023-021400-
GREATER PHOENIX AREA

CITY           SKY/WX    TMP DP  RH WIND       PRES   REMARKS
PHOENIX        CLOUDY    64  49  57 S9        29.86S
BUCKEYE        CLOUDY    57  57 100 S7        29.86F
GLENDALE       CLOUDY    63  48  59 E6        29.86
LUKE AFB       MOCLDY    61  54  77 S6        29.84F
DEER VALLEY    CLOUDY    60  49  66 SE6       29.85F
SCOTTSDALE     CLOUDY    61  49  64 SE6       29.88F
MESA-FALCON    CLOUDY    61  46  59 S12       29.88
MESA-GATEWAY   MOCLDY    61  52  72 SE5       29.91S
CHANDLER       CLOUDY    63  50  63 S12       29.89
$$

AZZ027-028-021400-
SOUTHWEST MARICOPA COUNTY AND PINAL COUNTY

CITY           SKY/WX    TMP DP  RH WIND       PRES   REMARKS
CASA GRANDE    CLOUDY    61  46  59 S6        29.90F
GILA BEND      LGT RAIN  54  51  90 W13       29.88R
$$

AZZ503-504-507>509-021400-
SOUTHEAST ARIZONA

CITY           SKY/WX    TMP DP  RH WIND       PRES   REMARKS
TUCSON         CLOUDY    61  44  53 SW8       29.97S
DAVIS-MONTHAN  MOCLDY    59  44  57 SW8       29.95R
RYAN FIELD       N/A     61  46  59 S13       29.96
NOGALES        MOCLDY    54  43  66 S16       30.00S
SIERRA VISTA   MOCLDY    52  36  54 S5        30.00R
DOUGLAS        MOCLDY    57  35  43 S30G37    30.00R
SAFFORD        MOCLDY    60  35  39 S17       29.93R
$$

AZZ020-021-025-026-031-021400-
SOUTHWEST ARIZONA

CITY           SKY/WX    TMP DP  RH WIND       PRES   REMARKS
YUMA           LGT RAIN  53  50  89 E6        29.88F
$$

CAZ031-033-041-043-047-048-061-021400-
SOUTHERN CALIFORNIA

CITY           SKY/WX    TMP DP  RH WIND       PRES   REMARKS
DOWNTOWN L.A.  CLOUDY    51  47  86 CALM      29.89S
L.A. AIRPORT   PTCLDY    48  46  93 CALM      29.89S
SAN DIEGO      MOCLDY    53  47  79 NE8       29.92S
BURBANK        CLEAR     46  42  86 CALM      29.87S
ONTARIO        MOCLDY    46  43  89 N8        29.88F
RIVERSIDE      LGT RAIN  46  43  89 E8        29.89F
PALM SPRINGS   CLOUDY    51  48  89 CALM      29.90S
EL CENTRO NAS  MOCLDY    52  50  93 CALM      29.87F
IMPERIAL       CLOUDY    52  50  93 S5        29.88F
BLYTHE         LGT RAIN  50  50 100 S3        29.88F
NEEDLES        LGT RAIN  50  46  86 S5        29.87R
$$

NVZ020-UTZ003-021400-
SOUTHERN NEVADA-UTAH

CITY           SKY/WX    TMP DP  RH WIND       PRES   REMARKS
LAS VEGAS      CLOUDY    46  41  82 S7        29.78F
SALT LAKE CITY CLOUDY    39  31  72 CALM      29.80F
$$

NMZ009-TXZ055-021400-
NEW MEXICO-WEST TEXAS

CITY           SKY/WX    TMP DP  RH WIND       PRES   REMARKS
ALBUQUERQUE    CLOUDY    37  30  75 N10       30.06R WCI  30
EL PASO        CLOUDY    58  32  37 SE6       30.03S
$$


........................KEY........................
SKY/WX - SKY CONDITION/WEATHER
TMP    - TEMPERATURE IN FAHRENHEIT
DP     - DEW POINT IN FAHRENHEIT
RH     - RELATIVE HUMIDITY IN PERCENT
WIND   - DIRECTION AND SPEED IN MILES PER HOUR (MPH)
VRB    - VARIABLE WIND DIRECTION
PRES   - MEAN SEA LEVEL PRESSURE IN INCHES OF MERCURY
         F - FALLING PRESSURE   R - RISING PRESSURE
         S - STEADY PRESSURE
VSB    - VISIBILITY IN MILES
HX     - HEAT INDEX IN FAHRENHEIT
WCI    - WIND CHILL INDEX IN FAHRENHEIT
TC     - TEMPERATURE IN CELSIUS WHICH IS ALSO KNOWN AS
         TEMPERATURE IN CENTIGRADE
AFB    - AIR FORCE BASE
         LUKE AFB IS LUKE AIR FORCE BASE
         DAVIS-MONTHAN IS DAVIS-MONTHAN AIR FORCE BASE
NAS    - NAVAL AIR STATION
         EL CENTRO NAS IS EL CENTRO NAVAL AIR STATION
N/A    - NOT AVAILABLE



USA.gov is the U.S. government's official web portal to all federal, state and local government web resources and services.